VIR876 EGLL-EGPF

Flight info

Callsign VIR876
Flight time 0h 55m
Altitude 38000
Route ULTIB T420 TNT UN57 POL UN601 RIBEL DCT ASLIB
Aircraft A343/H-SDE2E3FGHIJ4J5M1RWXY/LB1D1

Departure

Time 2026-05-07 14:14
Airport London Heathrow Airport (EGLL)

Arrival

Time 2026-05-07 15:09
Airport Glasgow Airport (EGPF)
Time Latitude Longitude Altitude Speed Heading
2026-05-07 13:43 51.46846 -0.46146 93 ft 0 kts 236°
2026-05-07 13:44 51.46846 -0.46145 93 ft 0 kts 236°
2026-05-07 14:03 51.46848 -0.46142 93 ft 3 kts 236°
2026-05-07 14:04 51.46862 -0.46106 93 ft 4 kts 238°
2026-05-07 14:04 51.46874 -0.46076 89 ft 4 kts 216°
2026-05-07 14:04 51.46896 -0.46069 92 ft 4 kts 160°
2026-05-07 14:04 51.46914 -0.46083 93 ft 1 kts 145°
2026-05-07 14:08 51.46912 -0.46080 89 ft 1 kts 145°
2026-05-07 14:08 51.46908 -0.46076 93 ft 2 kts 145°
2026-05-07 14:09 51.46893 -0.46060 90 ft 4 kts 145°
2026-05-07 14:09 51.46868 -0.46031 89 ft 5 kts 145°
2026-05-07 14:09 51.46831 -0.45994 93 ft 7 kts 151°
2026-05-07 14:09 51.46780 -0.45985 89 ft 8 kts 197°
2026-05-07 14:10 51.46750 -0.46050 94 ft 8 kts 256°
2026-05-07 14:10 51.46747 -0.46177 91 ft 18 kts 268°
2026-05-07 14:10 51.46744 -0.46444 91 ft 26 kts 270°
2026-05-07 14:10 51.46745 -0.46723 92 ft 23 kts 270°
2026-05-07 14:11 51.46745 -0.46959 91 ft 22 kts 270°
2026-05-07 14:11 51.46745 -0.47206 93 ft 23 kts 270°
2026-05-07 14:11 51.46743 -0.47462 89 ft 23 kts 269°
2026-05-07 14:11 51.46741 -0.47726 89 ft 24 kts 269°
2026-05-07 14:12 51.46740 -0.47980 91 ft 23 kts 270°
2026-05-07 14:12 51.46721 -0.48193 93 ft 13 kts 226°
2026-05-07 14:12 51.46666 -0.48220 93 ft 12 kts 182°
2026-05-07 14:12 51.46580 -0.48215 93 ft 13 kts 180°
2026-05-07 14:13 51.46496 -0.48174 93 ft 13 kts 129°
2026-05-07 14:13 51.46483 -0.47944 90 ft 45 kts 90°
2026-05-07 14:13 51.46483 -0.46969 93 ft 128 kts 90°
2026-05-07 14:13 51.46492 -0.45219 158 ft 186 kts 90°
2026-05-07 14:14 51.46474 -0.43234 1231 ft 179 kts 91°
2026-05-07 14:14 51.46871 -0.41245 1843 ft 204 kts 54°
2026-05-07 14:14 51.47831 -0.39464 2557 ft 215 kts 48°
2026-05-07 14:14 51.48853 -0.37703 3333 ft 217 kts 49°
2026-05-07 14:15 51.49868 -0.35877 4160 ft 221 kts 50°
2026-05-07 14:15 51.50878 -0.33986 5079 ft 224 kts 50°
2026-05-07 14:15 51.51818 -0.31978 5669 ft 227 kts 60°
2026-05-07 14:15 51.52455 -0.29650 5958 ft 229 kts 70°
2026-05-07 14:16 51.52962 -0.27228 6006 ft 230 kts 72°
2026-05-07 14:16 51.53515 -0.24801 5996 ft 231 kts 63°
2026-05-07 14:16 51.54547 -0.22866 5996 ft 230 kts 32°
2026-05-07 14:16 51.56036 -0.22112 5999 ft 230 kts
2026-05-07 14:17 51.57624 -0.22391 6000 ft 231 kts 349°
2026-05-07 14:17 51.59202 -0.22902 5999 ft 232 kts 348°
2026-05-07 14:17 51.60787 -0.23433 5997 ft 232 kts 347°
2026-05-07 14:17 51.62301 -0.24323 6000 ft 232 kts 332°
2026-05-07 14:18 51.63702 -0.25606 5999 ft 232 kts 329°
2026-05-07 14:18 51.65086 -0.26955 5999 ft 233 kts 329°
2026-05-07 14:18 51.66471 -0.28304 6003 ft 233 kts 329°
2026-05-07 14:18 51.67857 -0.29646 6006 ft 232 kts 329°
2026-05-07 14:19 51.69239 -0.30985 6004 ft 232 kts 329°
2026-05-07 14:19 51.70624 -0.32326 6028 ft 231 kts 329°
2026-05-07 14:19 51.72010 -0.33671 6408 ft 234 kts 329°
2026-05-07 14:19 51.73419 -0.35032 7255 ft 237 kts 329°
2026-05-07 14:20 51.74833 -0.36395 8282 ft 236 kts 329°
2026-05-07 14:20 51.76250 -0.37762 9188 ft 239 kts 329°
2026-05-07 14:20 51.77688 -0.39154 10040 ft 243 kts 329°
2026-05-07 14:20 51.79169 -0.40587 10562 ft 263 kts 329°
2026-05-07 14:21 51.80812 -0.42180 10905 ft 288 kts 329°
2026-05-07 14:21 51.82589 -0.43894 11235 ft 311 kts 329°
2026-05-07 14:21 51.84508 -0.45752 11745 ft 325 kts 328°
2026-05-07 14:21 51.86469 -0.47655 12481 ft 331 kts 328°
2026-05-07 14:22 51.88458 -0.49588 13219 ft 337 kts 328°
2026-05-07 14:22 51.90478 -0.51557 13951 ft 341 kts 328°
2026-05-07 14:22 51.92524 -0.53557 14682 ft 345 kts 328°
2026-05-07 14:22 51.94593 -0.55578 15431 ft 349 kts 327°
2026-05-07 14:23 51.96684 -0.57612 16152 ft 353 kts 327°
2026-05-07 14:23 51.98798 -0.59676 16853 ft 356 kts 327°
2026-05-07 14:23 52.00930 -0.61765 17549 ft 360 kts 327°
2026-05-07 14:23 52.03065 -0.63856 18231 ft 364 kts 327°
2026-05-07 14:24 52.05215 -0.65967 18888 ft 367 kts 327°
2026-05-07 14:24 52.07419 -0.68134 19534 ft 372 kts 327°
2026-05-07 14:24 52.09649 -0.70327 20147 ft 375 kts 327°
2026-05-07 14:24 52.11896 -0.72540 20759 ft 380 kts 327°
2026-05-07 14:25 52.14173 -0.74779 21349 ft 383 kts 327°
2026-05-07 14:25 52.16465 -0.77034 21919 ft 387 kts 327°
2026-05-07 14:25 52.18784 -0.79325 22458 ft 391 kts 327°
2026-05-07 14:25 52.21090 -0.81610 22997 ft 394 kts 327°
2026-05-07 14:26 52.23448 -0.83949 23509 ft 398 kts 327°
2026-05-07 14:26 52.25822 -0.86302 24011 ft 401 kts 328°
2026-05-07 14:26 52.28221 -0.88677 24508 ft 405 kts 327°
2026-05-07 14:26 52.30637 -0.91078 24982 ft 408 kts 328°
2026-05-07 14:27 52.33069 -0.93499 25457 ft 411 kts 328°
2026-05-07 14:27 52.35516 -0.95941 25895 ft 414 kts 328°
2026-05-07 14:27 52.37982 -0.98405 26361 ft 417 kts 328°
2026-05-07 14:27 52.40462 -1.00887 26800 ft 419 kts 328°
2026-05-07 14:28 52.42956 -1.03383 27201 ft 422 kts 328°
2026-05-07 14:28 52.45468 -1.05901 27611 ft 425 kts 328°
2026-05-07 14:28 52.47995 -1.08437 28015 ft 427 kts 328°
2026-05-07 14:28 52.50540 -1.10995 28402 ft 430 kts 328°
2026-05-07 14:29 52.53097 -1.13567 28757 ft 432 kts 328°
2026-05-07 14:29 52.55670 -1.16157 29103 ft 435 kts 329°
2026-05-07 14:29 52.58257 -1.18759 29468 ft 437 kts 329°
2026-05-07 14:29 52.60856 -1.21380 29815 ft 440 kts 329°
2026-05-07 14:30 52.63470 -1.24025 30142 ft 442 kts 329°
2026-05-07 14:30 52.66093 -1.26684 30497 ft 443 kts 329°
2026-05-07 14:30 52.68714 -1.29343 30947 ft 442 kts 329°
2026-05-07 14:30 52.71329 -1.31996 31403 ft 440 kts 329°
2026-05-07 14:31 52.73936 -1.34641 31863 ft 439 kts 328°
2026-05-07 14:31 52.76527 -1.37284 32260 ft 438 kts 328°
2026-05-07 14:31 52.79112 -1.39928 32674 ft 436 kts 328°
2026-05-07 14:31 52.81685 -1.42563 33053 ft 436 kts 328°
2026-05-07 14:32 52.84262 -1.45204 33421 ft 435 kts 328°
2026-05-07 14:32 52.86836 -1.47845 33770 ft 434 kts 328°
2026-05-07 14:32 52.89399 -1.50477 34114 ft 434 kts 328°
2026-05-07 14:32 52.91933 -1.53081 34439 ft 433 kts 328°
2026-05-07 14:33 52.94494 -1.55717 34766 ft 433 kts 328°
2026-05-07 14:33 52.97048 -1.58349 35083 ft 432 kts 328°
2026-05-07 14:33 52.99600 -1.60982 35380 ft 432 kts 328°
2026-05-07 14:33 53.02155 -1.63623 35656 ft 432 kts 328°
2026-05-07 14:34 53.04709 -1.66132 35907 ft 433 kts 333°
2026-05-07 14:34 53.07459 -1.68167 36176 ft 432 kts 337°
2026-05-07 14:34 53.10255 -1.70019 36418 ft 433 kts 338°
2026-05-07 14:34 53.13075 -1.71807 36629 ft 434 kts 339°
2026-05-07 14:35 53.15908 -1.73562 36862 ft 435 kts 339°
2026-05-07 14:35 53.18739 -1.75299 37163 ft 433 kts 339°
2026-05-07 14:35 53.21558 -1.77032 37501 ft 430 kts 339°
2026-05-07 14:35 53.24358 -1.78759 37798 ft 428 kts 339°
2026-05-07 14:36 53.27154 -1.80493 37955 ft 430 kts 339°
2026-05-07 14:36 53.32824 -1.84029 37979 ft 441 kts 338°
2026-05-07 14:37 53.38641 -1.87678 37979 ft 452 kts 338°
2026-05-07 14:37 53.47513 -1.93261 37981 ft 453 kts 338°
2026-05-07 14:38 53.53410 -1.96982 38036 ft 453 kts 338°
2026-05-07 14:38 53.59305 -2.00717 38037 ft 453 kts 338°
2026-05-07 14:39 53.65213 -2.04472 38036 ft 453 kts 338°
2026-05-07 14:39 53.71117 -2.08231 38035 ft 454 kts 338°
2026-05-07 14:40 53.77017 -2.12024 38036 ft 454 kts 338°
2026-05-07 14:40 53.82869 -2.16012 38045 ft 453 kts 336°
2026-05-07 14:41 53.88705 -2.20053 38045 ft 453 kts 337°
2026-05-07 14:41 53.94549 -2.24087 38045 ft 453 kts 337°
2026-05-07 14:42 54.00387 -2.28129 38038 ft 453 kts 335°
2026-05-07 14:42 54.05951 -2.32995 38036 ft 452 kts 330°
2026-05-07 14:43 54.11466 -2.38127 38032 ft 452 kts 330°
2026-05-07 14:43 54.16971 -2.43318 38025 ft 452 kts 329°
2026-05-07 14:44 54.22475 -2.48519 38026 ft 452 kts 329°
2026-05-07 14:44 54.27962 -2.53712 38026 ft 452 kts 329°
2026-05-07 14:45 54.33473 -2.58940 38018 ft 452 kts 329°
2026-05-07 14:45 54.38972 -2.64168 38009 ft 452 kts 329°
2026-05-07 14:46 54.44468 -2.69409 38008 ft 452 kts 329°
2026-05-07 14:46 54.49919 -2.74625 38008 ft 451 kts 329°
2026-05-07 14:47 54.55440 -2.79923 38008 ft 451 kts 329°
2026-05-07 14:47 54.60877 -2.85159 37865 ft 448 kts 329°
2026-05-07 14:48 54.63571 -2.87756 37697 ft 440 kts 329°
2026-05-07 14:48 54.66220 -2.90312 37537 ft 431 kts 329°
2026-05-07 14:48 54.68827 -2.92834 37144 ft 429 kts 329°
2026-05-07 14:48 54.71436 -2.95367 36580 ft 431 kts 329°
2026-05-07 14:49 54.74056 -2.97915 36007 ft 433 kts 329°
2026-05-07 14:49 54.76692 -3.00481 35424 ft 436 kts 329°
2026-05-07 14:49 54.79340 -3.03064 34843 ft 438 kts 329°
2026-05-07 14:49 54.82003 -3.05662 34241 ft 440 kts 329°
2026-05-07 14:50 54.84678 -3.08269 33611 ft 442 kts 329°
2026-05-07 14:50 54.87365 -3.10893 32973 ft 444 kts 329°
2026-05-07 14:50 54.90059 -3.13534 32343 ft 446 kts 329°
2026-05-07 14:50 54.92762 -3.16192 31722 ft 447 kts 329°
2026-05-07 14:51 54.95470 -3.18858 31098 ft 448 kts 329°
2026-05-07 14:51 54.98165 -3.21514 30472 ft 448 kts 328°
2026-05-07 14:51 55.00882 -3.24195 29833 ft 449 kts 328°
2026-05-07 14:51 55.03599 -3.26875 29196 ft 449 kts 328°
2026-05-07 14:52 55.06313 -3.29556 28584 ft 448 kts 328°
2026-05-07 14:52 55.09026 -3.32244 27954 ft 448 kts 328°
2026-05-07 14:52 55.11733 -3.34933 27325 ft 447 kts 328°
2026-05-07 14:52 55.14432 -3.37616 26697 ft 446 kts 328°
2026-05-07 14:53 55.17128 -3.40302 26069 ft 445 kts 328°
2026-05-07 14:53 55.19813 -3.42981 25442 ft 444 kts 328°
2026-05-07 14:53 55.22493 -3.45652 24813 ft 442 kts 328°
2026-05-07 14:53 55.25156 -3.48315 24186 ft 440 kts 328°
2026-05-07 14:54 55.27804 -3.50969 23558 ft 438 kts 328°
2026-05-07 14:54 55.30444 -3.53619 22931 ft 436 kts 328°
2026-05-07 14:54 55.33066 -3.56257 22303 ft 433 kts 328°
2026-05-07 14:54 55.35673 -3.58881 21677 ft 431 kts 328°
2026-05-07 14:55 55.38271 -3.61499 21047 ft 428 kts 328°
2026-05-07 14:55 55.40815 -3.64065 20430 ft 426 kts 327°
2026-05-07 14:55 55.43374 -3.66650 19805 ft 423 kts 327°
2026-05-07 14:55 55.45917 -3.69223 19176 ft 417 kts 327°
2026-05-07 14:56 55.48371 -3.71706 18571 ft 395 kts 327°
2026-05-07 14:56 55.50679 -3.74036 17969 ft 368 kts 327°
2026-05-07 14:56 55.52817 -3.76196 17384 ft 347 kts 327°
2026-05-07 14:56 55.54880 -3.78282 16782 ft 331 kts 327°
2026-05-07 14:57 55.56841 -3.80279 16172 ft 321 kts 326°
2026-05-07 14:57 55.58762 -3.82250 15553 ft 318 kts 326°
2026-05-07 14:57 55.60667 -3.84213 14937 ft 316 kts 326°
2026-05-07 14:57 55.62563 -3.86167 14313 ft 315 kts 326°
2026-05-07 14:58 55.64415 -3.88079 13701 ft 317 kts 326°
2026-05-07 14:58 55.66305 -3.90024 13066 ft 310 kts 326°
2026-05-07 14:58 55.68126 -3.91892 12461 ft 301 kts 326°
2026-05-07 14:58 55.69961 -3.93617 11846 ft 294 kts 332°
2026-05-07 14:59 55.71833 -3.95024 11227 ft 289 kts 334°
2026-05-07 14:59 55.73682 -3.96358 10601 ft 285 kts 334°
2026-05-07 14:59 55.75505 -3.97654 9980 ft 280 kts 334°
2026-05-07 14:59 55.77304 -3.98923 9357 ft 276 kts 334°
2026-05-07 15:00 55.79078 -4.00174 8736 ft 273 kts 334°
2026-05-07 15:00 55.80232 -4.00982 8558 ft 263 kts 334°
2026-05-07 15:00 55.81876 -4.02133 8156 ft 254 kts 334°
2026-05-07 15:00 55.83546 -4.03316 7533 ft 255 kts 334°
2026-05-07 15:01 55.85179 -4.04475 6918 ft 255 kts 334°
2026-05-07 15:01 55.86845 -4.05656 6319 ft 254 kts 334°
2026-05-07 15:01 55.88441 -4.06777 5954 ft 240 kts 334°
2026-05-07 15:01 55.89956 -4.07844 5410 ft 236 kts 334°
2026-05-07 15:02 55.91453 -4.08900 4898 ft 233 kts 334°
2026-05-07 15:02 55.92973 -4.09977 4347 ft 230 kts 334°
2026-05-07 15:02 55.94453 -4.11029 3812 ft 228 kts 334°
2026-05-07 15:02 55.95917 -4.12068 3285 ft 225 kts 334°
2026-05-07 15:03 55.97361 -4.13101 2957 ft 224 kts 334°
2026-05-07 15:03 55.98803 -4.14119 2890 ft 217 kts 334°
2026-05-07 15:03 56.00130 -4.15115 2884 ft 195 kts 326°
2026-05-07 15:03 56.00822 -4.16852 2884 ft 164 kts 273°
2026-05-07 15:04 56.00485 -4.18651 2916 ft 153 kts 227°
2026-05-07 15:04 55.99702 -4.19978 2904 ft 158 kts 221°
2026-05-07 15:04 55.98895 -4.21361 2904 ft 165 kts 225°
2026-05-07 15:04 55.98103 -4.22856 2905 ft 160 kts 226°
2026-05-07 15:05 55.97398 -4.24193 2783 ft 139 kts 226°
2026-05-07 15:05 55.96784 -4.25352 2613 ft 126 kts 225°
2026-05-07 15:05 55.96185 -4.26476 2425 ft 123 kts 225°
2026-05-07 15:05 55.95590 -4.27591 2254 ft 126 kts 225°
2026-05-07 15:06 55.95015 -4.28670 2072 ft 125 kts 225°
2026-05-07 15:06 55.94410 -4.29804 1887 ft 126 kts 225°
2026-05-07 15:06 55.93816 -4.30922 1736 ft 126 kts 226°
2026-05-07 15:06 55.93210 -4.32060 1570 ft 125 kts 225°
2026-05-07 15:07 55.92630 -4.33147 1415 ft 117 kts 226°
2026-05-07 15:07 55.92076 -4.34185 1264 ft 115 kts 223°
2026-05-07 15:07 55.91522 -4.35223 1107 ft 119 kts 223°
2026-05-07 15:07 55.90946 -4.36299 949 ft 121 kts 223°
2026-05-07 15:08 55.90373 -4.37381 783 ft 119 kts 223°
2026-05-07 15:08 55.89804 -4.38446 626 ft 119 kts 223°
2026-05-07 15:08 55.89235 -4.39507 466 ft 118 kts 224°
2026-05-07 15:08 55.88678 -4.40554 309 ft 119 kts 224°
2026-05-07 15:09 55.88107 -4.41632 143 ft 121 kts 223°
2026-05-07 15:09 55.87534 -4.42701 38 ft 115 kts 225°
2026-05-07 15:09 55.87090 -4.43514 36 ft 47 kts 226°
2026-05-07 15:09 55.86932 -4.43680 35 ft 25 kts 202°
2026-05-07 15:10 55.86787 -4.43762 35 ft 14 kts 182°
2026-05-07 15:10 55.86746 -4.43661 36 ft 11 kts 82°
2026-05-07 15:10 55.86769 -4.43520 35 ft 13 kts 74°
2026-05-07 15:10 55.86793 -4.43360 35 ft 15 kts 79°
2026-05-07 15:11 55.86754 -4.43201 34 ft 8 kts 127°
2026-05-07 15:11 55.86750 -4.43190 35 ft 0 kts 127°